Regional Weather Roundup
Issued by NWS

Home | Current Version | Previous Version | Text Only | Print | Product List | Glossary On
Versions: 1 2 3 4 5 6 7 8 9 10 11 12 13 14 15 16 17 18 19 20 21 22 23 24 25 26 27 28 29 30 31 32 33 34 35 36 37 38 39 40 41 42 43 44 45 46 47 48 49 50
000
ASUS43 KMPX 211210
RWRMN
WEATHER ROUNDUP FOR MINNESOTA
NATIONAL WEATHER SERVICE TWIN CITIES/CHANHASSEN MN
700 AM CDT MON MAY 21 2018


NOTE: "FAIR" INDICATES FEW OR NO CLOUDS BELOW 12,000 FEET WITH NO
SIGNIFICANT WEATHER AND/OR OBSTRUCTIONS TO VISIBILITY. N/A MEANS
CURRENT SKY AND/OR WEATHER CONDITIONS ARE NOT AVAILABLE.

MNZ060>063-068>070-211300-
   Twin Cities Metro

CITY           SKY/WX    TMP DP  RH WIND       PRES   REMARKS
TWIN CITIES    CLOUDY    60  51  72 E10       30.10F
6HR MIN TEMP:  60; 6HR MAX TEMP:  62;

ST PAUL        CLOUDY    59  47  64 E6        30.11F
CRYSTAL        CLOUDY    60  47  61 E6        30.09F
BLAINE         CLOUDY    59  46  63 E7        30.10F
LAKEVILLE      CLOUDY    55  52  88 E9        30.09F
EDEN PRAIRIE   CLOUDY    59  50  72 E8        30.08F
6HR MIN TEMP:  59; 6HR MAX TEMP:  62;

SOUTH ST PAUL  PTSUNNY   59  47  63 E7        30.10F
LAKE ELMO      CLOUDY    57  46  67 E6        30.12S
$$
MNZ001>005-007-008-013>017-022>024-027-028-211300-
   Northwest Minnesota

CITY           SKY/WX    TMP DP  RH WIND       PRES   REMARKS
BEMIDJI        FAIR      40  37  90 CALM      30.13S
HALLOCK        FAIR      52  37  58 SE5       30.09S
ROSEAU         FAIR      50  41  71 CALM      30.11S
WARROAD        FAIR      52  37  58 S3        30.12S
THIEF RVR FALL FAIR      50  36  58 SE5       30.12S
CROOKSTON      FAIR      52  39  62 SE6       30.10S
FOSSTON        FAIR      50  37  62 CALM      30.12S
DETROIT LAKES  FAIR      50  36  57 CALM      30.11S
MOORHEAD       FAIR      50  37  62 E3        30.09S
PARK RAPIDS    FAIR      45  40  82 CALM      30.11F
MAHNOMEN       FAIR      49  38  65 E3        30.11S
$$
MNZ006-009>011-018-025>026-211300-
   North Central Minnesota

CITY           SKY/WX    TMP DP  RH WIND       PRES   REMARKS
BAUDETTE       FAIR      47  42  83 SE5       30.13S
FLAG ISLAND    FAIR      52  45  76 SE6       30.11S
INTL FALLS     FAIR      47  41  80 CALM      30.14S
6HR MIN TEMP:  36; 6HR MAX TEMP:  47;

WASKISH        PTSUNNY   43  37  81 CALM      30.13S
BIG FORK       FAIR      37  36  93 CALM      30.15S
LONGVILLE      FAIR      39  37  93 CALM      30.13S
GRAND RAPIDS   FAIR      42  36  79 CALM      30.17S
CRANE LAKE     FAIR      36  36 100 CALM      30.17F
ORR            FAIR      46  32  57 CALM      30.14S
COOK           FAIR      37  36  93 CALM      30.17S
WALKER         FAIR      38  36  91 CALM      30.12F
$$
MNZ012-019>021-037-211300-
   Northeast Minnesota

CITY           SKY/WX    TMP DP  RH WIND       PRES   REMARKS
DULUTH         FAIR      49  38  65 CALM      30.16F
6HR MIN TEMP:  38; 6HR MAX TEMP:  49;

ELY            FAIR      39  36  87 CALM      30.17S
HIBBING        FAIR      39  36  89 CALM      30.16S
EVELETH        FAIR      41  39  93 CALM      30.18S
DULUTH HARBOR  FAIR      46  41  81 NE3       30.18S
TWO HARBORS    FAIR      46  39  76 CALM      30.15F
SILVER BAY     FAIR      41  36  81 CALM      30.16S
GRAND MARAIS     N/A     43  35  73 CALM      30.18R
G MARAIS ARPRT FAIR      46  34  61 CALM      30.20S
$$
MNZ029>031-032-039>041-046>048-054>057-064-211300-
   West Central Minnesota

CITY           SKY/WX    TMP DP  RH WIND       PRES   REMARKS
FERGUS FALLS   PTSUNNY   55  36  47 CALM      30.06R
WHEATON        CLOUDY    55  37  50 E5        30.09S
MORRIS         CLOUDY    57  41  54 E6        30.07S
ALEXANDRIA     CLOUDY    57  38  48 E5        30.10S
ELBOW LAKE     CLOUDY    54  41  62 SE9       30.08F
WADENA         FAIR      46  36  66 CALM      30.10F
GLENWOOD       RAIN      52  41  66 NE3       30.10R
APPLETON       CLOUDY    59  46  63 E6        30.06S
BENSON         CLOUDY    55  46  71 SE5       30.09S
ORTONVILLE     CLOUDY    57  45  62 SE8       30.06S
MADISON        CLOUDY    61  55  82 SE13      30.06S
WILLMAR        CLOUDY    54  52  94 E3        30.10F
$$
MNZ033>034-036-042>043-049>051-058-059-211300-
   Central Minnesota

CITY           SKY/WX    TMP DP  RH WIND       PRES   REMARKS
ST CLOUD       CLOUDY    53  40  61 E7        30.10F
6HR MIN TEMP:  43; 6HR MAX TEMP:  53;

SAUK CENTRE    CLOUDY    53  37  55 E5        30.10S
PAYNESVILLE    LGT RAIN  52  49  90 NE3       30.09F
AITKIN         FAIR      39  36  87 CALM      30.12F
PINE RIVER     FAIR      39  36  87 CALM      30.16S
BRAINERD       FAIR      51  39  63 CALM      30.13S
STAPLES        CLOUDY    48  37  66 CALM      30.11S
LONG PRAIRIE   CLOUDY    50  36  57 NE3       30.10S
LITTLE FALLS   FAIR      52  37  58 CALM      30.11S
LITCHFIELD     DRIZZLE   55  55 100 E7        30.09S
BUFFALO        CLOUDY    57  48  73 NE6       30.10F
MAPLE LAKE     LGT RAIN  55  51  86 CALM      30.10F
HUTCHINSON     DRIZZLE   56  55  97 E6        30.09F
$$
MNZ037-044-045-052-053-211300-
   East Central Minnesota

CITY           SKY/WX    TMP DP  RH WIND       PRES   REMARKS
PRINCETON      CLOUDY    54  45  71 NE3       30.12S
MORA           PTSUNNY   46  39  76 CALM      30.15F
CAMBRIDGE      CLOUDY    55  43  62 NE3       30.12F
RUSH CITY      CLOUDY    50  42  74 CALM      30.14S
MOOSE LAKE     FAIR      43  36  75 CALM      30.14S
HINCKLEY       FAIR      43  41  93 CALM      30.15S
CLOQUET        FAIR      45  36  70 CALM      30.16S
MCGREGOR       FAIR      41  37  87 CALM      30.15S
$$
MNZ071>073-080-081-089-090-097-098-211300-
   Southwest Minnesota

CITY           SKY/WX    TMP DP  RH WIND       PRES   REMARKS
MONTEVIDEO     CLOUDY    57  52  82 SE8       30.07S
GRANITE FALLS  CLOUDY    58  55  91 E6        30.08S FOG
CANBY          CLOUDY    57  56  95 SE8       30.06F FOG
MARSHALL       LGT RAIN  55  54  96 SE7       30.06F FOG
REDWOOD FALLS  CLOUDY    56  55  97 SE6       30.06S FOG
OLIVIA         CLOUDY    55  55 100 E7        30.06F
PIPESTONE      RAIN      55  54  94 SE7       30.05F
WINDOM         DRIZZLE   55  41  58 E3        30.05S
WORTHINGTON    CLOUDY    54  53  97 E6        30.06S FOG
JACKSON        CLOUDY    54  54 100 SE7       30.06S FOG
TRACY          DRIZZLE   56  56 100 CALM      30.05F
SLAYTON        LGT RAIN  54  54 100 SE8       30.06F
$$
MNZ065>067-074>077-082>085-091>093-211300-
   South Central Minnesota

CITY           SKY/WX    TMP DP  RH WIND       PRES   REMARKS
MANKATO        CLOUDY    57  53  86 SE8       30.08S
NEW ULM        CLOUDY    55  54  94 E5        30.06F
ST JAMES       CLOUDY    55  54  94 E6        30.07S FOG
FAIRMONT       CLOUDY    55  54  96 SE10      30.06F
GLENCOE        DRIZZLE   58  58 100 E6        30.08S
FARIBAULT      CLOUDY    57  52  82 CALM      30.09S
OWATONNA       CLOUDY    57  52  82 E9        30.08S
WASECA         CLOUDY    55  52  88 E7        30.09S
ALBERT LEA     LGT RAIN  55  52  88 SE7       30.07S
$$
MNZ078>079-086>088-094>096-211300-
   Southeast Minnesota

CITY           SKY/WX    TMP DP  RH WIND       PRES   REMARKS
ROCHESTER      LGT RAIN  54  51  90 E8        30.10S
6HR MIN TEMP:  54; 6HR MAX TEMP:  56; 6HR PCP: TRACE;

RED WING       CLOUDY    57  43  58 E6        30.09F
STANTON        CLOUDY    59  51  75 E7        30.08F
DODGE CENTER   CLOUDY    55  48  76 E9        30.09S
WINONA         CLOUDY    55  46  71 SE5       30.09F
AUSTIN         PTSUNNY   55  50  82 E8        30.07F
PRESTON        CLOUDY    53  48  84 E6        30.10S
$$
ABBREVIATIONS USED IN REMARKS
   TC - TEMPERATURES IN CELSIUS
  WCI - WIND CHILL INDEX
   HX - HEAT INDEX
  VSB - VISIBILITY
$$




USA.gov is the U.S. government's official web portal to all federal, state and local government web resources and services.